Back to catalog

COSMOS 2251 DEB

AliveLEO
NORAD 38483·DEBRIS·🇷🇺 Russia

Launched Jun 16, 1993 from Plesetsk Cosmodrome

Loading…

Next Passes (next 24 hours)

TLE

StaleSource: Space-Track

Epoch: Aug 29, 2026, 10:02 UTC

1 38483U 93036BTT 26241.41833115  .00001239  00000-0  45784-3 0  9994
2 38483  74.2581 266.4647 0114766 293.5756  65.3375 14.29831528671884

Track COSMOS 2251 DEB in real time with AllMySat

Download on the App Store